Hourly Weather Roundup
Issued by NWS Central Illinois

Home | Current Version | Previous Version | Text Only | Print | Product List | Glossary On
Versions: 1 2 3 4 5 6 7 8 9 10 11 12 13 14 15 16 17 18 19 20 21 22 23 24 25 26 27 28 29 30 31 32 33 34 35 36 37 38 39 40 41 42 43 44 45 46 47 48 49 50
000
NZUS43 KILX 210410
HWRILX

AREA WEATHER ROUNDUP
NATIONAL WEATHER SERVICE, LINCOLN IL
1000 PM CST SAT DEC 20 2014


CITY           SKY/WX    TMP DP  RH WIND       PRES   REMARKS
BLOOMINGTON    CLOUDY    32  29  89 S8        30.25S WCI  25
CHAMPAIGN      CLOUDY    32  27  81 SE8       30.27R WCI  25
DECATUR        CLOUDY    33  28  81 S6        30.26F WCI  28
FLORA          CLEAR     33  29  84 SE3       30.30S
GALESBURG      CLOUDY    33  31  92 SE3       30.20F
JACKSONVILLE   CLOUDY    39  34  82 S6        30.23S WCI  35
LACON          CLOUDY    32  28  85 S5        30.23F WCI  28
LAWRENCEVILLE  CLEAR     26  24  92 CALM      30.31S FOG
LITCHFIELD     CLOUDY    36  30  80 SE7       30.24F WCI  30
$$


CITY           SKY/WX    TMP DP  RH WIND       PRES   REMARKS
LINCOLN        CLOUDY    35  31  87 S5        30.26S WCI  31
MACOMB         CLOUDY    34  33  96 SE5       30.22F FOG     WCI  30
MATTOON        CLOUDY    31  26  82 S8        30.27S WCI  23
MT CARMEL AP   CLEAR     30  27  86 CALM      30.31R FOG
OLNEY-NOBLE AP CLOUDY    28  27  93 CALM      30.30S
PARIS          CLEAR     28  26  96 CALM      30.30R
PEORIA         CLOUDY    36  28  73 S8        30.24S WCI  30
PONTIAC        CLOUDY    33  30  89 S8        30.26S WCI  26
RANTOUL        MOCLDY    31  28  88 SE6       30.26F WCI  25
ROBINSON       CLEAR     25  24  99 CALM      30.32R FOG
SPRINGFIELD    CLOUDY    38  31  76 SE12      30.24F WCI  30
TAYLORVILLE    CLOUDY    34  30  86 SE8       30.25F WCI  27
$$

...REGIONAL REPORTS...


CITY           SKY/WX    TMP DP  RH WIND       PRES   REMARKS
CHICAGO O`HARE CLOUDY    32  26  78 S7        30.24F WCI  26
KANKAKEE       CLOUDY    32  28  86 SE3       30.27S
MOLINE         CLOUDY    33  29  85 S8        30.20S FOG     WCI  26
MOUNT VERNON   CLOUDY    36  27  69 E5        30.29S WCI  32
PITTSFIELD     CLOUDY    37  34  89 S5        30.23S WCI  33
QUINCY         CLOUDY    38  33  82 S10       30.20S WCI  31
ROCKFORD       CLOUDY    31  26  82 S7        30.24F WCI  24
$$


CITY           SKY/WX    TMP DP  RH WIND       PRES   REMARKS
BURLINGTON     CLOUDY    36  34  92 S6        30.19S FOG     WCI  31
CEDAR RAPIDS   FOG       32  32 100 SE8       30.15S VSB 1/2 WCI  25
DES MOINES     CLOUDY    36  34  92 SE10      30.10F FOG     WCI  28
KIRKSVILLE     CLOUDY    38  37  97 S9        30.17S FOG     WCI  31
OTTUMWA        CLOUDY    35  34  96 SE7       30.14F FOG     WCI  29
ST LOUIS       CLOUDY    42  33  70 SE9       30.24F
$$


CITY           SKY/WX    TMP DP  RH WIND       PRES   REMARKS
TERRE HAUTE    CLEAR     26  23  88 CALM      30.30S
EVANSVILLE     CLEAR     28  24  85 CALM      30.31S
INDIANAPOLIS   PTCLDY    25  21  85 CALM      30.29R
LAFAYETTE      CLOUDY    30  26  85 SE3       30.28F
MADISON        CLOUDY    30  26  85 S7        30.20F WCI  23
MILWAUKEE      CLOUDY    31  24  75 SW6       30.24S WCI  25
$$





USA.gov is the U.S. government's official web portal to all federal, state and local government web resources and services.